520  
ASUS45 KBOU 210110  
RWRCO  
 
WEATHER ROUNDUP FOR COLORADO  
NATIONAL WEATHER SERVICE DENVER/BOULDER CO  
700 PM MDT SAT APR 20 2019  
 
NOTE: "FAIR" INDICATES FEW OR NO CLOUDS BELOW 12000 FEET WITH NO  
SIGNIFICANT WEATHER AND/OR S TO VISIBILITY
.  
 
COZ001>005-013-030-031-210200-   
..NORTHWEST COLORADO
 
 
 
CITY SKY/WX TMP DP RH WIND PRES REMARKS
 
CRAIG FAIR 64 28 25 S15 29.87S  
HAYDEN FAIR 58 29 33 S6 29.91F  
MEEKER FAIR 60 27 28 S13 29.87F  
RANGELY MOCLDY 66 28 23 SW10 29.81R  
RABBIT EARS PA CLOUDY 39 23 52 SW9G18 30.10S  
STEAMBOAT SPGS CLOUDY 56 29 35 N7 29.93S  
WALDEN FAIR 50 25 37 W16 30.00R  

 
 
COZ006>008-011-210200-   
..WEST CENTRAL VALLEYS
 
 
 
CITY SKY/WX TMP DP RH WIND PRES REMARKS
 
GRAND JUNCTION FAIR 67 30 25 SE7 29.81F  
MONTROSE MOCLDY 59 32 36 SE20G25 29.92F  
EAGLE CLOUDY 57 31 37 E6 29.97S  
RIFLE FAIR 60 34 37 SE25G31 29.88R  
DELTA LGT RAIN 62 37 38 NE12G20 29.88R  
NUCLA FAIR 64 25 22 SE9 29.89F  

 
 
COZ017>023-064>068-210200-   
..SOUTHWEST COLORADO
 
 
 
CITY SKY/WX TMP DP RH WIND PRES REMARKS
 
DURANGO CLOUDY 60 24 25 W21G31 29.96R  
CORTEZ FAIR 65 27 23 S15 29.91F  
PAGOSA SPRINGS CLOUDY 52 32 46 E8 30.04R  
TELLURIDE FAIR 41 34 75 E6 30.09F  
WOLF CREEK PAS FOG 28 28 100 S5 30.23F VSB 1/4 WCI 23  

 
 
COZ009-010-012-014-032>034-037-058>063-210200-   
..CENTRAL COLORADO
 
 
 
CITY SKY/WX TMP DP RH WIND PRES REMARKS
 
ASPEN MOCLDY 52 29 41 SE8 30.00S  
BUENA VISTA CLOUDY 55 23 28 W31 29.99R  
COPPER MTN FAIR 37 28 70 W7 30.18F  
BERTHOUD PASS MOCLDY 32 23 69 W12G20 30.19S WCI 23  
COTTONWOOD PAS MOCLDY 43 28 56 W26G45 30.10R  
GUNNISON FAIR 48 36 63 NE9 30.03F  
GRANBY MOCLDY 52 27 37 SW13 30.01S  
KREMMLING FAIR 54 28 37 SW9G24 29.97R  
LEADVILLE MOCLDY 41 25 53 NW12 30.08S  
MONARCH PASS SNOW 30 28 93 W20G29 30.28S VSB<1/4 WCI 18  
SALIDA CLOUDY 53 32 44 W16G23 30.07R  
SUNLIGHT CLOUDY 34 28 80 SW9G17 30.16S WCI 26  
WILKERSON PASS CLOUDY 41 16 36 CALM 30.16S  

 
 
COZ069>075-210200-   
..SAN LUIS VALLEY/SANGRE DE CRISTO MOUNTAINS
 
 
 
CITY SKY/WX TMP DP RH WIND PRES REMARKS
 
ALAMOSA MOCLDY 52 28 39 SW16 30.00F  
DEL NORTE FAIR 48 32 54 SW18G25 30.03F  
LA VETA PASS NOT AVBL  
SAGUACHE FAIR 52 30 43 CALM 30.01R  

 
 
COZ035-036-038>040-210200-   
..NORTHERN COLORADO FRONT RANGE
 
 
 
CITY SKY/WX TMP DP RH WIND PRES REMARKS
 
DENVER INTL AP MOCLDY 68 24 19 S8 29.76S  
AURORA MOCLDY 72 20 14 SW10 29.77F  
FRONT RANGE AP MOCLDY 72 21 15 SW7 29.78S  
ERIE MUNI ARPT FAIR 71 19 14 W6 29.80R  
BOULDER MUN AP FAIR 70 27 19 W12G18 29.77R  
CENTENNIAL MOCLDY 70 23 17 SE3 29.79R  
BROOMFIELD MOCLDY 72 21 15 W12 29.78R  
FORT COLLINS FAIR 66 32 28 W28 29.75R  
LONGMONT FAIR 71 29 21 W6G16 29.79R  

 
 
COZ041-046-047-076>085-087-088-210200-   
..PIKES PEAK/PALMER DIVIDE AND SOUTHERN FOOTHILLS
 
 
 
CITY SKY/WX TMP DP RH WIND PRES REMARKS
 
COLO. SPRINGS CLOUDY 70 20 15 S14G33 29.85R  
A. F. ACADEMY CLOUDY 67 18 15 SW7 29.84R  
SCHRIEVER AFB NOT AVBL  
CHEYENNE MTN MOCLDY 64 19 17 CALM 29.84R  
ELLICOTT N/A N/A N/A N/A W14 29.82R  
FALCON FAIR 65 17 15 SW8 29.88S  
FORT CARSON FAIR 70 20 15 NW8 29.81S  
LIMON FAIR 71 19 14 S5 29.75S  
MONUMENT HILL MOCLDY 63 23 22 SW12G17 29.89R  
CANON CITY NOT AVBL  
WALSENBURG NOT AVBL  
TRINIDAD FAIR 74 15 10 SW15G22 29.78F  

 
 
COZ042>045-048>051-090-091-210200-   
..NORTHEAST COLORADO
 
 
 
CITY SKY/WX TMP DP RH WIND PRES REMARKS
 
GREELEY ARPT FAIR 74 24 15 SW17 29.73R  
AKRON FAIR 73 25 16 SE6 29.71F  
BURLINGTON FAIR 76 29 17 S10 29.69S  
WRAY FAIR 81 30 16 SE10 29.66S  
YUMA NOT AVBL  
STERLING FAIR 75 30 19 CALM 29.66F  
HOLYOKE FAIR 79 34 19 SE9 29.67S  
FORT MORGAN NOT AVBL  

 
 
COZ086-089-092>099-210200-   
..SOUTHEAST COLORADO
 
 
 
CITY SKY/WX TMP DP RH WIND PRES REMARKS
 
PUEBLO FAIR 77 25 14 W9G24 29.72R  
LA JUNTA FAIR 81 16 9 W10 29.68F  
LAMAR FAIR 77 22 13 S5 29.64F  
SPRINGFIELD N/A 74 25 16 SW8 29.70F  

 
 
 
CLICK HERE TO GO TO PREVIOUS BULLETINS.

The Nexlab CO Page Main Text Page